Theta_e
286 287 286 287 288 289 288 289 289 289 289 288 288 287 287 286 286 286 285 285 284 284 284 283 283 283 282 282 282 281 280 280 278 279 279 280 279 279 280 279 279 278 278
286 286 286 287 287 287 287 288 289 288 289 288 288 288 287 287 287 286 285 285 284 283 284 284 283 284 283 283 282 282 281 281 280 278 279 277 277 278 277 277 278 279 277
287 286 286 286 287 287 287 288 288 288 288 288 288 287 287 287 287 287 286 286 285 285 285 284 284 284 283 283 283 282 282 282 280 279 278 277 276 277 276 276 276 276 278
287 286 285 286 287 287 288 288 288 288 287 288 288 288 287 287 287 287 286 286 286 285 285 285 285 284 283 283 283 282 282 281 280 278 276 274 275 276 275 274 273 275 274
287 286 287 287 288 288 287 287 288 288 287 287 287 287 287 287 287 287 286 286 285 285 285 285 285 285 286 286 284 283 282 280 278 277 275 273 274 273 272 273 272 272 272
287 287 287 287 287 286 286 287 287 287 287 287 286 286 286 287 289 289 288 286 286 285 284 285 285 285 285 287 288 287 284 280 278 276 275 273 274 273 273 271 270 268 265
286 287 287 287 286 285 286 286 285 286 286 286 286 286 286 286 289 290 289 287 285 285 285 285 284 284 284 284 287 287 285 285 283 277 274 274 273 273 272 269 268 269 267
286 286 287 286 286 286 285 284 285 285 285 285 286 286 286 286 289 289 289 287 286 286 285 285 284 284 284 283 283 283 281 281 281 279 276 274 274 274 271 272 270 265 263
285 286 286 286 286 285 284 284 284 284 284 285 285 285 285 286 289 289 289 286 285 285 286 285 284 284 285 285 282 280 277 276 280 279 278 278 278 278 275 270 258 256 255
284 285 285 285 284 283 283 283 283 283 283 284 284 285 285 285 288 289 288 286 285 285 285 285 284 284 284 285 280 277 274 273 274 274 273 273 271 268 270 267 265 255 254
284 284 284 284 283 283 282 282 282 281 281 281 282 283 283 284 285 288 289 286 285 284 284 284 282 285 284 285 280 276 275 274 275 271 268 266 263 263 263 264 264 262 255
282 282 283 284 284 283 282 281 281 280 279 279 279 280 281 282 284 286 288 289 288 285 284 280 280 284 284 284 278 279 278 272 267 265 263 261 261 261 260 261 259 259 262
280 281 281 282 282 283 281 281 281 281 280 279 278 279 279 280 276 283 286 288 288 286 281 279 281 284 284 282 278 278 270 266 264 262 261 260 259 260 257 254 252 253 255
278 278 279 280 281 281 282 281 280 279 279 278 278 278 278 273 273 277 281 284 286 282 279 279 281 281 276 276 275 269 266 265 263 261 259 257 256 254 253 253 251 253 254
277 277 277 279 279 279 280 280 279 279 280 278 279 279 278 272 275 280 281 278 275 277 277 275 270 268 265 265 264 263 263 262 260 257 255 252 253 253 253 252 251 251 253
276 276 277 277 277 278 278 278 283 283 283 283 284 283 279 280 280 282 282 279 279 278 271 268 266 265 264 263 262 261 261 260 258 255 250 250 250 250 251 251 251 250 254
275 276 277 276 277 276 277 277 277 280 283 282 282 284 281 279 280 281 280 279 277 273 266 265 264 264 263 262 261 260 259 259 257 252 249 248 248 248 249 251 253 253 253
277 277 277 277 277 277 277 279 279 277 275 273 278 280 279 279 281 279 280 274 267 267 266 264 263 262 262 261 260 259 257 254 251 248 247 247 245 247 248 250 252 251 253
276 277 278 278 278 278 279 280 276 273 272 272 274 276 276 279 280 277 272 265 263 262 262 261 261 260 259 258 257 255 253 251 247 245 244 244 245 244 249 251 252 253 253
277 277 278 279 279 277 274 270 270 271 268 266 266 265 266 266 263 262 262 262 261 260 260 259 258 257 256 255 252 251 247 244 243 242 243 244 246 247 251 251 252 252 253
277 278 277 274 271 269 269 266 264 265 265 266 266 268 269 262 260 260 259 259 259 258 258 257 256 254 251 249 245 244 242 243 242 242 243 245 244 248 250 252 252 253 253
274 274 270 268 266 265 264 264 265 267 266 265 264 266 266 260 259 258 257 256 256 256 255 254 252 249 246 244 243 243 242 241 242 243 245 244 246 249 251 251 252 253 253
272 268 265 264 263 264 264 265 264 262 261 260 260 259 258 257 257 256 255 254 254 252 248 249 246 244 242 242 241 242 243 246 247 244 245 246 249 250 251 251 252 252 253
266 265 264 263 263 263 262 261 261 260 260 259 258 257 256 255 254 253 252 249 248 246 245 244 243 244 242 241 241 242 244 246 245 247 247 249 250 251 251 251 252 252 253
264 263 263 262 261 261 260 260 259 258 257 256 255 254 253 252 250 248 246 245 244 244 244 244 240 241 243 244 245 244 245 251 250 251 250 250 250 251 251 252 253 253 254
263 262 262 261 261 260 260 259 257 256 255 254 253 252 251 248 247 245 244 245 244 242 243 241 241 243 244 245 246 249 252 256 255 254 252 251 251 252 252 253 254 254 256
Wind_Speed
7 8 9 12 13 14 14 16 17 17 16 16 17 16 18 17 17 17 17 17 16 17 15 15 16 14 10 9 9 8 9 8 11 6 5 4 4 4 3 2 3 4 4
9 7 9 12 12 13 15 17 17 18 17 17 16 18 17 19 19 20 20 19 20 19 20 18 18 12 15 13 10 13 11 11 10 13 6 4 5 4 3 3 5 5 4
7 7 9 10 10 13 15 16 15 17 17 16 16 18 19 18 19 20 20 20 21 21 21 21 21 18 16 14 13 12 11 9 9 8 7 3 3 2 3 4 5 6 6
7 7 8 10 11 13 14 14 15 15 16 16 18 19 19 19 19 20 20 20 21 21 21 21 20 20 20 18 15 15 12 10 9 8 5 3 3 3 3 4 6 4 5
12 11 12 12 12 11 12 14 14 14 16 17 17 18 18 17 16 19 19 21 21 21 21 20 20 21 27 22 13 14 13 10 7 7 5 3 4 3 4 3 4 5 6
14 14 14 14 13 12 12 13 13 14 16 17 18 20 20 16 28 31 25 19 21 21 20 20 19 21 22 27 28 24 19 14 12 8 6 6 7 4 3 3 5 5 5
17 18 18 17 15 15 14 12 11 13 14 16 18 19 21 22 32 35 35 21 22 22 21 18 17 15 18 17 25 26 22 23 16 10 7 8 5 6 4 4 5 7 7
18 19 19 18 18 17 12 12 13 11 11 13 17 18 18 19 31 31 32 21 20 23 22 21 20 19 18 18 17 17 15 14 13 9 8 6 5 5 6 4 3 3 2
18 19 18 17 18 18 15 14 13 13 13 14 14 16 18 20 30 28 23 17 19 23 20 21 20 20 22 27 17 17 13 9 13 13 11 10 11 11 5 2 2 2 3
19 19 16 16 15 16 17 16 14 12 12 12 16 16 19 20 28 26 21 13 17 15 18 21 25 19 22 28 16 16 14 11 11 7 4 3 5 1 3 1 2 3 3
18 18 19 18 17 16 16 15 15 14 13 13 15 17 16 17 20 23 23 14 15 14 13 12 9 24 24 27 22 14 12 14 14 8 5 3 2 1 2 3 3 3 3
16 17 18 19 15 14 16 15 14 12 13 14 14 14 12 14 16 19 22 26 24 14 12 8 9 25 26 27 17 20 20 14 8 6 4 3 3 3 3 3 4 4 6
17 19 19 20 18 16 15 15 12 12 10 12 10 11 13 8 5 14 20 23 28 16 7 15 22 25 25 20 21 21 15 8 7 4 4 3 3 3 2 1 3 5 7
18 20 20 20 20 18 13 11 10 11 11 10 11 11 11 5 3 4 8 11 20 8 17 13 14 13 13 11 11 11 6 5 5 3 3 2 1 1 2 2 2 2 4
19 19 19 18 19 17 16 11 11 13 11 11 12 9 9 6 5 10 6 5 8 13 13 8 10 8 8 7 6 6 5 5 4 3 2 2 2 1 2 2 2 2 5
19 17 16 16 16 15 14 16 20 23 25 24 28 20 6 9 8 12 15 18 22 24 9 10 8 8 8 6 6 5 4 4 3 3 2 3 2 2 2 2 3 3 8
20 20 16 18 15 15 15 13 15 17 17 17 22 21 11 8 11 15 20 23 22 16 9 8 7 6 6 5 5 4 4 3 3 3 3 3 2 2 2 3 5 5 8
21 27 18 16 14 13 14 14 13 10 9 5 11 5 10 10 14 21 24 21 9 8 8 7 7 5 5 5 5 3 3 3 2 3 2 2 2 2 2 4 5 7 8
19 17 17 15 14 14 13 15 4 1 2 2 4 6 1 8 20 22 19 7 8 7 6 6 6 5 5 4 4 3 3 3 3 2 1 2 2 2 5 6 7 10 11
17 24 20 11 10 11 7 2 4 5 6 7 7 8 9 14 11 9 8 7 7 7 6 6 5 4 4 3 3 3 2 1 1 2 3 3 3 4 6 7 7 8 9
13 10 18 8 6 3 4 6 7 7 8 9 9 10 19 12 8 8 7 6 6 6 5 5 4 3 3 3 3 3 2 3 3 3 2 3 3 5 6 7 8 9 10
14 13 2 3 4 6 7 7 7 9 10 11 10 13 24 8 8 7 7 6 5 5 4 3 3 2 3 3 3 3 3 3 3 3 4 4 4 6 7 8 9 10 10
11 3 6 6 6 9 8 7 8 9 9 9 9 9 8 7 7 6 5 4 4 3 3 3 2 0 1 3 3 4 4 5 6 4 4 4 6 7 7 9 10 10 10
5 7 7 7 6 7 8 8 9 11 10 9 8 8 7 6 5 5 4 3 3 2 2 1 0 2 3 3 3 4 5 6 3 6 8 7 8 9 9 10 11 13 13
6 7 7 7 8 8 9 9 9 9 8 8 7 7 5 4 4 3 3 2 1 2 3 3 2 4 6 8 7 7 8 12 10 9 6 9 12 14 12 10 13 13 16
7 8 8 8 9 8 8 9 9 8 8 7 6 5 4 3 2 1 1 2 2 3 4 3 4 7 8 7 9 11 12 13 12 14 11 10 10 10 10 13 18 13 17
Wind_Direction
241 238 234 240 242 244 244 244 243 245 242 237 233 223 223 218 218 219 223 222 219 223 222 219 221 216 212 209 206 205 209 206 230 246 224 210 222 224 234 248 257 258 261
266 248 240 243 246 244 243 245 244 244 242 241 236 236 228 228 221 221 222 221 222 222 222 222 222 218 219 215 209 212 212 210 216 234 233 226 212 208 215 244 267 271 270
302 280 268 257 256 254 254 253 250 247 245 246 241 238 237 231 231 229 226 226 227 225 223 222 221 216 217 217 213 215 215 214 211 225 230 192 187 178 237 249 248 253 253
319 297 272 267 260 257 257 255 251 246 245 242 239 240 239 239 234 233 230 231 232 231 227 228 225 219 219 215 215 214 212 209 205 212 204 179 184 189 199 248 263 244 268
327 316 305 294 283 270 264 261 253 245 240 239 239 238 239 237 239 234 230 230 231 234 234 229 227 223 222 217 211 212 206 204 196 206 197 159 192 187 205 209 256 271 270
304 294 291 288 282 268 261 254 258 254 251 247 238 233 231 229 235 232 227 229 231 233 235 234 234 228 224 219 216 211 200 193 200 194 201 211 219 187 176 194 254 272 287
297 298 293 284 275 272 268 267 254 258 261 253 248 248 244 241 239 230 221 215 222 229 230 228 230 230 224 219 219 214 204 204 199 177 187 203 197 175 177 212 239 252 257
292 292 289 286 286 286 283 274 277 271 255 255 257 251 248 249 249 245 234 225 227 234 230 227 225 226 222 208 206 197 182 184 183 173 168 159 171 184 197 212 242 264 279
290 290 291 292 295 289 283 280 280 279 277 273 260 257 248 253 251 248 239 228 230 234 237 229 222 225 218 203 201 185 164 154 164 164 172 183 207 236 253 54 322 64 289
301 298 295 291 285 283 289 286 283 278 276 275 274 265 260 258 258 251 238 222 228 235 236 240 224 216 192 204 190 180 165 161 148 151 130 137 93 78 308 261 184 196 222
295 296 295 292 284 287 283 281 283 287 282 275 272 272 265 257 261 252 238 223 226 226 231 231 212 205 199 200 179 174 168 145 164 144 125 123 121 214 216 216 207 188 194
288 287 288 288 286 279 274 271 269 270 275 275 277 275 269 262 252 253 242 231 230 226 229 187 187 198 193 179 165 158 156 132 120 123 134 166 199 204 224 217 214 223 238
292 293 291 290 284 279 275 269 271 269 265 270 269 270 274 265 240 258 254 243 235 227 183 168 175 182 176 172 156 154 123 124 128 125 163 183 179 194 216 277 260 245 256
294 296 294 290 286 285 279 267 260 260 265 268 269 270 274 267 248 226 246 246 248 183 155 158 157 143 120 113 130 100 102 118 124 137 148 148 128 168 233 197 252 277 282
295 294 294 290 287 287 281 270 260 256 253 270 270 268 265 252 236 247 222 124 135 144 133 117 113 115 114 104 93 98 105 105 115 122 121 184 213 185 242 204 228 259 246
291 292 289 289 289 286 283 287 265 260 272 269 272 268 258 232 228 236 170 149 145 133 115 122 121 122 119 116 115 112 114 123 126 126 159 186 198 220 251 253 219 226 268
290 291 291 287 282 281 279 276 282 289 276 281 274 271 203 186 206 163 155 142 131 117 113 113 101 102 115 117 122 125 135 132 124 151 169 194 216 234 235 273 271 262 269
291 291 289 283 276 274 274 274 272 267 291 301 268 203 164 181 191 148 145 113 94 91 102 113 114 117 115 119 124 118 116 141 172 181 188 212 227 210 252 253 254 255 267
293 290 290 285 279 274 276 276 263 168 165 107 72 81 172 190 131 110 95 90 106 93 89 88 92 99 102 104 108 121 147 176 184 165 224 227 243 192 255 256 262 266 272
290 287 285 291 299 309 298 43 71 72 67 52 49 67 82 78 70 65 57 64 73 76 79 88 84 89 103 118 129 143 157 166 205 210 234 227 241 219 254 264 263 272 272
284 292 312 301 324 51 64 63 71 81 84 83 85 93 89 80 73 68 65 58 69 75 82 90 95 101 104 117 135 159 188 243 225 229 236 239 227 253 249 255 265 265 266
296 292 356 75 73 70 76 82 83 87 79 79 71 69 77 70 70 69 65 61 57 61 61 95 110 137 163 165 178 184 215 248 259 230 243 237 237 254 258 260 263 262 265
293 88 88 85 87 91 86 81 74 74 76 69 67 68 65 69 69 68 71 65 64 70 44 74 104 9 245 231 210 189 210 237 234 197 230 240 248 254 255 259 261 267 266
81 92 97 95 91 88 84 81 80 75 77 74 73 70 69 66 69 71 67 57 57 37 27 43 209 255 286 273 242 228 231 246 228 237 222 243 255 260 256 255 258 263 268
82 92 93 95 94 93 92 85 79 77 75 74 73 73 71 68 66 55 42 26 20 359 329 309 273 266 270 284 278 262 246 260 252 241 231 234 245 251 254 258 264 270 270
80 86 90 92 89 89 91 90 82 78 77 73 73 68 70 73 74 53 347 351 340 314 305 283 286 295 291 278 273 274 272 271 261 246 225 228 238 250 252 256 264 263 266